| time (UTC) | temp F | wind direction | speed MPH | gust MPH | rain 1hr in | rain 24hr in | rain mn in | humidity % | barometer mb |
| 20260510084538 | 51 | 5 | 0.0 | 0.0 | 0.00 | 0.74 | 0.16 | 97 | 1009.0 |
| 20260510083002 | 52 | 5 | 0.0 | 1.0 | 0.00 | 0.74 | 0.16 | 97 | 1009.1 |
| 20260510081540 | 52 | 5 | 1.0 | 5.0 | 0.00 | 0.74 | 0.16 | 97 | 1008.9 |
| 20260510080115 | 52 | 221 | 0.0 | 3.0 | 0.00 | 0.74 | 0.16 | 97 | 1008.7 |
| 20260510074535 | 51 | 166 | 0.0 | 0.0 | 0.00 | 0.74 | 0.16 | 97 | 1008.4 |
| 20260510073006 | 51 | 166 | 0.0 | 0.0 | 0.01 | 0.74 | 0.16 | 96 | 1008.1 |
| 20260510071539 | 52 | 166 | 0.0 | 0.0 | 0.01 | 0.74 | 0.16 | 97 | 1008.1 |
| 20260510070020 | 52 | 166 | 0.0 | 0.0 | 0.01 | 0.74 | 0.16 | 96 | 1008.3 |
| 20260510064602 | 52 | 166 | 0.0 | 2.0 | 0.01 | 0.74 | 0.16 | 97 | 1008.5 |
| 20260510063032 | 52 | 166 | 0.0 | 2.0 | 0.00 | 0.73 | 0.15 | 97 | 1008.6 |
| 20260510061557 | 52 | 165 | 0.0 | 1.0 | 0.01 | 0.73 | 0.15 | 96 | 1008.6 |
| 20260510060019 | 52 | 165 | 0.0 | 0.0 | 0.07 | 0.73 | 0.15 | 96 | 1008.7 |
| 20260510054513 | 53 | 165 | 0.0 | 3.0 | 0.08 | 0.73 | 0.15 | 96 | 1008.8 |
| 20260510053050 | 53 | 174 | 0.0 | 4.0 | 0.12 | 0.73 | 0.15 | 96 | 1008.7 |
| 20260510051513 | 53 | 171 | 0.0 | 0.0 | 0.13 | 0.72 | 0.14 | 96 | 1009.4 |
| 20260510050043 | 53 | 171 | 0.0 | 0.0 | 0.08 | 0.66 | 0.08 | 96 | 1009.8 |
| 20260510044507 | 53 | 171 | 0.0 | 1.0 | 0.07 | 0.66 | 0.07 | 96 | 1009.5 |
| 20260510043053 | 53 | 171 | 0.0 | 1.0 | 0.03 | 0.62 | 0.03 | 96 | 1009.2 |
| 20260510041507 | 53 | 171 | 0.0 | 2.0 | 0.01 | 0.60 | 0.01 | 95 | 1009.0 |
| 20260510040049 | 52 | 171 | 0.0 | 0.0 | 0.00 | 0.59 | 0.00 | 95 | 1008.4 |
| 20260510034550 | 53 | 171 | 0.0 | 0.0 | 0.00 | 0.60 | 0.59 | 95 | 1008.3 |
| 20260510033012 | 53 | 171 | 0.0 | 0.0 | 0.03 | 0.60 | 0.59 | 95 | 1008.6 |
| 20260510031553 | 53 | 171 | 0.0 | 0.0 | 0.10 | 0.60 | 0.59 | 94 | 1008.4 |
| 20260510030017 | 53 | 171 | 0.0 | 3.0 | 0.16 | 0.60 | 0.59 | 94 | 1008.5 |
| 20260510024550 | 53 | 171 | 1.0 | 4.0 | 0.24 | 0.63 | 0.59 | 94 | 1008.6 |
| 20260510023013 | 53 | 155 | 0.0 | 3.0 | 0.44 | 0.60 | 0.56 | 93 | 1009.5 |
| 20260510021549 | 54 | 155 | 0.0 | 3.0 | 0.37 | 0.53 | 0.49 | 92 | 1009.6 |
| 20260510020014 | 54 | 11 | 0.0 | 5.0 | 0.31 | 0.47 | 0.43 | 90 | 1009.6 |
| 20260510014545 | 55 | 72 | 2.0 | 10.0 | 0.23 | 0.41 | 0.35 | 86 | 1009.3 |
| 20260510013112 | 60 | 347 | 5.0 | 19.0 | 0.00 | 0.18 | 0.12 | 72 | 1008.8 |
| 20260510011535 | 61 | 239 | 0.0 | 6.0 | 0.00 | 0.18 | 0.12 | 67 | 1006.4 |
| 20260510010105 | 61 | 207 | 0.0 | 4.0 | 0.00 | 0.18 | 0.12 | 67 | 1006.3 |
| 20260510004528 | 61 | 199 | 1.0 | 4.0 | 0.00 | 0.18 | 0.12 | 67 | 1006.3 |
| 20260510003106 | 62 | 266 | 0.0 | 3.0 | 0.00 | 0.18 | 0.12 | 66 | 1006.2 |
| 20260510001530 | 63 | 286 | 0.0 | 4.0 | 0.00 | 0.18 | 0.12 | 64 | 1006.1 |
| 20260510000046 | 63 | 259 | 1.0 | 4.0 | 0.00 | 0.18 | 0.12 | 62 | 1005.8 |
| 20260509234509 | 64 | 280 | 3.0 | 7.0 | 0.00 | 0.18 | 0.12 | 61 | 1005.7 |
| 20260509233051 | 65 | 183 | 1.0 | 9.0 | 0.00 | 0.18 | 0.12 | 60 | 1005.6 |
| 20260509231604 | 65 | 239 | 2.0 | 6.0 | 0.00 | 0.18 | 0.12 | 59 | 1005.6 |
| 20260509230030 | 66 | 260 | 4.0 | 8.0 | 0.00 | 0.18 | 0.12 | 57 | 1005.6 |
| 20260509224510 | 68 | 238 | 2.0 | 6.0 | 0.00 | 0.18 | 0.12 | 57 | 1005.6 |
| 20260509223059 | 68 | 246 | 2.0 | 7.0 | 0.00 | 0.18 | 0.12 | 57 | 1005.2 |
| 20260509221521 | 68 | 259 | 3.0 | 8.0 | 0.00 | 0.18 | 0.12 | 56 | 1005.5 |
| 20260509220050 | 68 | 255 | 2.0 | 7.0 | 0.00 | 0.18 | 0.12 | 57 | 1005.6 |
| 20260509214510 | 68 | 245 | 3.0 | 7.0 | 0.00 | 0.21 | 0.12 | 56 | 1005.6 |
| 20260509213047 | 67 | 236 | 2.0 | 10.0 | 0.00 | 0.21 | 0.12 | 59 | 1005.9 |
| 20260509211514 | 67 | 242 | 4.0 | 8.0 | 0.00 | 0.21 | 0.12 | 59 | 1005.8 |
| 20260509210112 | 67 | 208 | 2.0 | 7.0 | 0.00 | 0.21 | 0.12 | 60 | 1006.2 |
| 20260509204515 | 67 | 179 | 3.0 | 8.0 | 0.00 | 0.21 | 0.12 | 61 | 1006.3 |
| 20260509203019 | 65 | 248 | 3.0 | 6.0 | 0.00 | 0.21 | 0.12 | 62 | 1006.3 |
| 20260509201516 | 65 | 227 | 2.0 | 7.0 | 0.00 | 0.21 | 0.12 | 63 | 1006.7 |
| 20260509194515 | 65 | 128 | 2.0 | 8.0 | 0.00 | 0.21 | 0.12 | 65 | 1007.0 |
| 20260509193058 | 65 | 90 | 3.0 | 7.0 | 0.00 | 0.21 | 0.12 | 69 | 1007.0 |
| 20260509191638 | 64 | 248 | 2.0 | 8.0 | 0.00 | 0.21 | 0.12 | 67 | 1007.2 |
| 20260509190106 | 65 | 292 | 3.0 | 8.0 | 0.00 | 0.21 | 0.12 | 68 | 1007.3 |
| 20260509184521 | 63 | 301 | 3.0 | 14.0 | 0.00 | 0.21 | 0.12 | 74 | 1007.5 |
| 20260509183046 | 62 | 227 | 3.0 | 11.0 | 0.00 | 0.21 | 0.12 | 72 | 1007.6 |
| 20260509181501 | 62 | 213 | 2.0 | 8.0 | 0.00 | 0.21 | 0.12 | 75 | 1007.7 |
| 20260509180035 | 61 | 252 | 2.0 | 8.0 | 0.00 | 0.21 | 0.12 | 80 | 1007.7 |
| 20260509174612 | 59 | 112 | 2.0 | 6.0 | 0.00 | 0.21 | 0.12 | 82 | 1007.8 |
| 20260509173037 | 59 | 249 | 2.0 | 5.0 | 0.00 | 0.21 | 0.12 | 83 | 1007.9 |
| 20260509171608 | 58 | 248 | 3.0 | 7.0 | 0.00 | 0.21 | 0.12 | 87 | 1007.8 |
| 20260509170031 | 56 | 237 | 2.0 | 6.0 | 0.00 | 0.21 | 0.12 | 91 | 1007.8 |
| 20260509164602 | 56 | 210 | 2.0 | 6.0 | 0.00 | 0.21 | 0.12 | 94 | 1007.7 |
| 20260509163034 | 56 | 219 | 1.0 | 6.0 | 0.00 | 0.21 | 0.12 | 96 | 1007.7 |
| 20260509161605 | 55 | 285 | 1.0 | 7.0 | 0.00 | 0.21 | 0.12 | 96 | 1007.7 |
| 20260509160033 | 54 | 254 | 0.0 | 4.0 | 0.01 | 0.21 | 0.12 | 97 | 1007.7 |
| 20260509154602 | 53 | 198 | 0.0 | 4.0 | 0.02 | 0.21 | 0.12 | 97 | 1007.7 |
| 20260509153021 | 53 | 167 | 1.0 | 6.0 | 0.04 | 0.21 | 0.12 | 97 | 1007.7 |
| 20260509151552 | 53 | 233 | 0.0 | 3.0 | 0.05 | 0.21 | 0.12 | 97 | 1007.6 |
| 20260509150025 | 52 | 223 | 0.0 | 5.0 | 0.04 | 0.20 | 0.11 | 97 | 1007.7 |
| 20260509144547 | 51 | 241 | 0.0 | 4.0 | 0.03 | 0.19 | 0.10 | 97 | 1007.8 |
| 20260509143015 | 51 | 251 | 0.0 | 2.0 | 0.01 | 0.17 | 0.08 | 97 | 1007.8 |
| 20260509141553 | 51 | 248 | 0.0 | 3.0 | 0.01 | 0.16 | 0.07 | 97 | 1007.8 |
| 20260509140023 | 51 | 251 | 0.0 | 3.0 | 0.02 | 0.16 | 0.07 | 97 | 1007.8 |
| 20260509134628 | 51 | 229 | 0.0 | 4.0 | 0.03 | 0.16 | 0.07 | 97 | 1007.9 |
| 20260509133027 | 50 | 241 | 0.0 | 5.0 | 0.04 | 0.16 | 0.07 | 97 | 1008.0 |
| 20260509131607 | 50 | 162 | 2.0 | 7.0 | 0.04 | 0.15 | 0.06 | 97 | 1008.0 |
| 20260509130033 | 50 | 235 | 1.0 | 4.0 | 0.03 | 0.14 | 0.05 | 97 | 1008.1 |
| 20260509124541 | 50 | 238 | 1.0 | 3.0 | 0.02 | 0.13 | 0.04 | 97 | 1008.1 |
| 20260509123008 | 50 | 231 | 0.0 | 2.0 | 0.01 | 0.12 | 0.03 | 97 | 1008.2 |
| 20260509121554 | 50 | 207 | 1.0 | 4.0 | 0.00 | 0.11 | 0.02 | 97 | 1008.1 |
| 20260509120012 | 50 | 313 | 0.0 | 2.0 | 0.00 | 0.11 | 0.02 | 97 | 1008.1 |
| 20260509114657 | 50 | 249 | 0.0 | 3.0 | 0.00 | 0.11 | 0.02 | 97 | 1008.1 |
| 20260509113013 | 49 | 255 | 1.0 | 5.0 | 0.00 | 0.11 | 0.02 | 97 | 1008.2 |
| 20260509111544 | 49 | 266 | 0.0 | 3.0 | 0.00 | 0.11 | 0.02 | 97 | 1008.0 |
| 20260509110029 | 49 | 163 | 0.0 | 2.0 | 0.00 | 0.11 | 0.02 | 97 | 1008.0 |
| 20260509104601 | 48 | 159 | 0.0 | 2.0 | 0.00 | 0.11 | 0.02 | 97 | 1008.0 |
| 20260509103024 | 48 | 157 | 0.0 | 0.0 | 0.00 | 0.11 | 0.02 | 97 | 1007.9 |
| 20260509101605 | 48 | 157 | 0.0 | 0.0 | 0.00 | 0.11 | 0.02 | 96 | 1007.9 |
| 20260509100035 | 47 | 157 | 0.0 | 0.0 | 0.00 | 0.11 | 0.02 | 96 | 1008.0 |
| 20260509094609 | 47 | 157 | 0.0 | 0.0 | 0.00 | 0.11 | 0.02 | 97 | 1008.2 |
| 20260509093004 | 47 | 157 | 0.0 | 0.0 | 0.01 | 0.11 | 0.02 | 96 | 1008.3 |
| 20260509091528 | 47 | 157 | 0.0 | 0.0 | 0.01 | 0.11 | 0.02 | 96 | 1008.3 |
| 20260509090104 | 47 | 157 | 0.0 | 0.0 | 0.01 | 0.11 | 0.02 | 96 | 1008.6 |